Time,TemperatureF,DewpointF,PressureIn,WindDirection,WindDirectionDegrees,WindSpeedMPH,WindSpeedGustMPH,Humidity,HourlyPrecipIn,Conditions,Clouds,dailyrainin,SoftwareType,DateUTC
2013-01-05 00:00:00,34.1,24.7,30.02,WNW,291,0.0,6.0,68,0.00,,---,0.00,VWS V13.01,2013-01-05 05:00:00,
2013-01-05 00:01:00,34.1,24.7,30.02,WNW,292,5.0,19.0,68,0.00,,---,0.00,VWS V13.01,2013-01-05 05:01:00,
2013-01-05 00:06:00,34.0,24.6,30.02,WNW,294,5.0,6.0,68,0.00,,---,0.00,VWS V13.01,2013-01-05 05:06:00,
2013-01-05 00:11:00,34.0,24.2,30.03,West,279,2.0,10.0,67,0.00,,---,0.00,VWS V13.01,2013-01-05 05:11:00,
2013-01-05 00:16:00,34.0,24.2,30.03,West,267,3.0,13.0,67,0.00,,---,0.00,VWS V13.01,2013-01-05 05:16:00,
2013-01-05 00:21:00,34.1,24.3,30.03,SW,236,5.0,5.0,67,0.00,,---,0.00,VWS V13.01,2013-01-05 05:21:00,
2013-01-05 00:26:00,34.1,24.3,30.03,WNW,284,7.0,7.0,67,0.00,,---,0.00,VWS V13.01,2013-01-05 05:26:00,
2013-01-05 00:31:00,34.1,24.3,30.03,West,267,6.0,8.0,67,0.00,,---,0.00,VWS V13.01,2013-01-05 05:31:00,
2013-01-05 00:35:00,34.0,24.2,30.03,West,271,5.0,5.0,67,0.00,,---,0.00,VWS V13.01,2013-01-05 05:35:00,
2013-01-05 00:40:00,33.9,24.1,30.03,WNW,292,5.0,10.0,67,0.00,,---,0.00,VWS V13.01,2013-01-05 05:40:00,
2013-01-05 00:45:00,33.8,25.7,30.03,West,263,4.0,4.0,72,0.00,,---,0.00,VWS V13.01,2013-01-05 05:45:00,
2013-01-05 00:50:00,33.6,24.2,30.03,WNW,293,3.0,3.0,68,0.00,,---,0.00,VWS V13.01,2013-01-05 05:50:00,
2013-01-05 00:55:00,33.4,24.0,30.04,West,265,2.0,4.0,68,0.00,,---,0.00,VWS V13.01,2013-01-05 05:55:00,
2013-01-05 01:01:00,33.3,23.9,30.03,SW,233,5.0,14.0,68,0.00,,---,0.00,VWS V13.01,2013-01-05 06:01:00,
2013-01-05 01:06:00,33.3,23.9,30.04,WNW,300,6.0,6.0,68,0.00,,---,0.00,VWS V13.01,2013-01-05 06:06:00,
2013-01-05 01:11:00,33.3,23.9,30.04,West,265,4.0,4.0,68,0.00,,---,0.00,VWS V13.01,2013-01-05 06:11:00,
2013-01-05 01:16:00,33.4,23.6,30.04,WNW,285,1.0,6.0,67,0.00,,---,0.00,VWS V13.01,2013-01-05 06:16:00,
2013-01-05 01:21:00,33.5,23.7,30.03,NW,312,5.0,5.0,67,0.00,,---,0.00,VWS V13.01,2013-01-05 06:21:00,
2013-01-05 01:26:00,33.4,23.6,30.04,West,273,3.0,7.0,67,0.00,,---,0.00,VWS V13.01,2013-01-05 06:26:00,
2013-01-05 01:31:00,33.4,23.6,30.04,WNW,299,11.0,11.0,67,0.00,,---,0.00,VWS V13.01,2013-01-05 06:31:00,
2013-01-05 01:36:00,33.3,23.5,30.05,West,279,2.0,2.0,67,0.00,,---,0.00,VWS V13.01,2013-01-05 06:36:00,
2013-01-05 01:41:00,33.3,23.5,30.05,WSW,250,0.0,7.0,67,0.00,,---,0.00,VWS V13.01,2013-01-05 06:41:00,
2013-01-05 01:46:00,33.3,23.5,30.05,WSW,254,1.0,3.0,67,0.00,,---,0.00,VWS V13.01,2013-01-05 06:46:00,
2013-01-05 01:51:00,33.1,23.7,30.05,WNW,284,0.0,6.0,68,0.00,,---,0.00,VWS V13.01,2013-01-05 06:51:00,
2013-01-05 01:56:00,33.0,23.6,30.06,WNW,298,3.0,3.0,68,0.00,,---,0.00,VWS V13.01,2013-01-05 06:56:00,
2013-01-05 02:01:00,32.9,23.5,30.06,WNW,288,5.0,5.0,68,0.00,,---,0.00,VWS V13.01,2013-01-05 07:01:00,
2013-01-05 02:06:00,32.8,23.8,30.06,West,259,0.0,4.0,69,0.00,,---,0.00,VWS V13.01,2013-01-05 07:06:00,
2013-01-05 02:11:00,32.6,23.6,30.07,West,281,0.0,2.0,69,0.00,,---,0.00,VWS V13.01,2013-01-05 07:11:00,
2013-01-05 02:16:00,32.5,23.5,30.07,NW,309,1.0,6.0,69,0.00,,---,0.00,VWS V13.01,2013-01-05 07:16:00,
2013-01-05 02:21:00,32.5,23.5,30.07,West,272,0.0,2.0,69,0.00,,---,0.00,VWS V13.01,2013-01-05 07:21:00,
2013-01-05 02:26:00,32.5,23.5,30.07,WNW,302,0.0,4.0,69,0.00,,---,0.00,VWS V13.01,2013-01-05 07:26:00,
2013-01-05 02:31:00,32.4,23.4,30.08,WNW,288,0.0,3.0,69,0.00,,---,0.00,VWS V13.01,2013-01-05 07:31:00,
2013-01-05 02:36:00,32.4,23.4,30.08,WNW,299,3.0,3.0,69,0.00,,---,0.00,VWS V13.01,2013-01-05 07:36:00,
2013-01-05 02:41:00,32.3,23.6,30.08,WNW,300,0.0,0.0,70,0.00,,---,0.00,VWS V13.01,2013-01-05 07:41:00,
2013-01-05 02:46:00,32.2,23.5,30.08,West,276,0.0,0.0,70,0.00,,---,0.00,VWS V13.01,2013-01-05 07:46:00,
2013-01-05 02:51:00,32.0,23.3,30.08,West,276,0.0,2.0,70,0.00,,---,0.00,VWS V13.01,2013-01-05 07:51:00,
2013-01-05 02:56:00,31.9,23.2,30.08,West,276,0.0,2.0,70,0.00,,---,0.00,VWS V13.01,2013-01-05 07:56:00,
2013-01-05 03:01:00,31.7,23.4,30.08,West,276,0.0,2.0,71,0.00,,---,0.00,VWS V13.01,2013-01-05 08:01:00,
2013-01-05 03:06:00,31.6,23.3,30.09,West,276,0.0,0.0,71,0.00,,---,0.00,VWS V13.01,2013-01-05 08:06:00,
2013-01-05 03:11:00,31.4,23.1,30.08,West,276,0.0,2.0,71,0.00,,---,0.00,VWS V13.01,2013-01-05 08:11:00,
2013-01-05 03:16:00,31.3,23.0,30.09,West,276,0.0,2.0,71,0.00,,---,0.00,VWS V13.01,2013-01-05 08:16:00,
2013-01-05 03:21:00,31.1,23.1,30.09,West,276,0.0,1.0,72,0.00,,---,0.00,VWS V13.01,2013-01-05 08:21:00,
2013-01-05 03:25:00,30.9,23.0,30.09,West,276,0.0,0.0,72,0.00,,---,0.00,VWS V13.01,2013-01-05 08:25:00,
2013-01-05 03:30:00,30.7,22.8,30.09,West,276,2.0,2.0,72,0.00,,---,0.00,VWS V13.01,2013-01-05 08:30:00,
2013-01-05 03:35:00,30.6,23.0,30.09,West,276,1.0,3.0,73,0.00,,---,0.00,VWS V13.01,2013-01-05 08:35:00,
2013-01-05 03:40:00,30.5,22.9,30.10,West,276,0.0,1.0,73,0.00,,---,0.00,VWS V13.01,2013-01-05 08:40:00,
2013-01-05 03:45:00,30.4,22.8,30.10,West,276,3.0,3.0,73,0.00,,---,0.00,VWS V13.01,2013-01-05 08:45:00,
2013-01-05 03:50:00,30.2,22.9,30.10,WNW,297,0.0,3.0,74,0.00,,---,0.00,VWS V13.01,2013-01-05 08:50:00,
2013-01-05 03:55:00,30.1,22.8,30.11,WNW,297,2.0,2.0,74,0.00,,---,0.00,VWS V13.01,2013-01-05 08:55:00,
2013-01-05 04:00:00,30.1,22.8,30.10,WNW,297,0.0,0.0,74,0.00,,---,0.00,VWS V13.01,2013-01-05 09:00:00,
2013-01-05 04:05:00,29.9,22.6,30.10,WNW,297,0.0,0.0,74,0.00,,---,0.00,VWS V13.01,2013-01-05 09:05:00,
2013-01-05 04:10:00,29.7,22.4,30.11,WNW,297,0.0,0.0,74,0.00,,---,0.00,VWS V13.01,2013-01-05 09:10:00,
2013-01-05 04:15:00,29.6,22.7,30.12,WNW,297,0.0,1.0,75,0.00,,---,0.00,VWS V13.01,2013-01-05 09:15:00,
2013-01-05 04:20:00,29.5,22.6,30.12,WNW,303,0.0,0.0,75,0.00,,---,0.00,VWS V13.01,2013-01-05 09:20:00,
2013-01-05 04:25:00,29.3,22.4,30.12,WNW,303,0.0,0.0,75,0.00,,---,0.00,VWS V13.01,2013-01-05 09:25:00,
2013-01-05 04:30:00,29.2,22.3,30.13,WNW,303,0.0,2.0,75,0.00,,---,0.00,VWS V13.01,2013-01-05 09:30:00,
2013-01-05 04:35:00,29.1,22.5,30.13,WNW,303,0.0,2.0,76,0.00,,---,0.00,VWS V13.01,2013-01-05 09:35:00,
2013-01-05 04:40:00,29.0,22.4,30.14,WNW,303,0.0,1.0,76,0.00,,---,0.00,VWS V13.01,2013-01-05 09:40:00,
2013-01-05 04:45:00,28.8,22.2,30.14,WNW,303,0.0,0.0,76,0.00,,---,0.00,VWS V13.01,2013-01-05 09:45:00,
2013-01-05 04:50:00,28.8,22.2,30.14,WNW,303,2.0,2.0,76,0.00,,---,0.00,VWS V13.01,2013-01-05 09:50:00,
2013-01-05 04:55:00,28.7,22.1,30.15,WNW,303,0.0,0.0,76,0.00,,---,0.00,VWS V13.01,2013-01-05 09:55:00,
2013-01-05 05:00:00,28.6,22.0,30.15,WNW,302,3.0,5.0,76,0.00,,---,0.00,VWS V13.01,2013-01-05 10:00:00,
2013-01-05 05:05:00,28.5,22.2,30.15,WNW,302,0.0,0.0,77,0.00,,---,0.00,VWS V13.01,2013-01-05 10:05:00,
2013-01-05 05:10:00,28.5,22.2,30.15,WNW,302,0.0,0.0,77,0.00,,---,0.00,VWS V13.01,2013-01-05 10:10:00,
2013-01-05 05:15:00,28.5,21.9,30.16,WNW,302,0.0,0.0,76,0.00,,---,0.00,VWS V13.01,2013-01-05 10:15:00,
2013-01-05 05:20:00,28.4,21.8,30.16,WNW,302,0.0,0.0,76,0.00,,---,0.00,VWS V13.01,2013-01-05 10:20:00,
2013-01-05 05:25:00,28.3,22.0,30.16,WNW,302,0.0,0.0,77,0.00,,---,0.00,VWS V13.01,2013-01-05 10:25:00,
2013-01-05 05:30:00,28.2,21.9,30.17,WNW,302,0.0,0.0,77,0.00,,---,0.00,VWS V13.01,2013-01-05 10:30:00,
2013-01-05 05:35:00,28.0,21.7,30.17,WNW,302,0.0,0.0,77,0.00,,---,0.00,VWS V13.01,2013-01-05 10:35:00,
2013-01-05 05:40:00,27.9,21.6,30.18,WNW,302,0.0,0.0,77,0.00,,---,0.00,VWS V13.01,2013-01-05 10:40:00,
2013-01-05 05:45:00,27.8,21.9,30.18,WNW,302,0.0,0.0,78,0.00,,---,0.00,VWS V13.01,2013-01-05 10:45:00,
2013-01-05 05:50:00,27.6,21.6,30.18,WNW,302,0.0,0.0,78,0.00,,---,0.00,VWS V13.01,2013-01-05 10:50:00,
2013-01-05 05:55:00,27.4,21.5,30.18,WNW,302,0.0,0.0,78,0.00,,---,0.00,VWS V13.01,2013-01-05 10:55:00,
2013-01-05 06:00:00,27.3,21.7,30.18,WNW,302,0.0,0.0,79,0.00,,---,0.00,VWS V13.01,2013-01-05 11:00:00,
2013-01-05 06:05:00,27.2,21.6,30.19,WNW,302,0.0,0.0,79,0.00,,---,0.00,VWS V13.01,2013-01-05 11:05:00,
2013-01-05 06:10:00,27.1,21.5,30.19,WNW,302,0.0,0.0,79,0.00,,---,0.00,VWS V13.01,2013-01-05 11:10:00,
2013-01-05 06:15:00,27.0,21.4,30.20,WNW,302,0.0,0.0,79,0.00,,---,0.00,VWS V13.01,2013-01-05 11:15:00,
2013-01-05 06:20:00,26.9,21.6,30.20,WNW,302,0.0,0.0,80,0.00,,---,0.00,VWS V13.01,2013-01-05 11:20:00,
2013-01-05 06:25:00,26.8,21.5,30.20,WNW,302,0.0,0.0,80,0.00,,---,0.00,VWS V13.01,2013-01-05 11:25:00,
2013-01-05 06:30:00,26.7,21.4,30.20,WNW,302,0.0,0.0,80,0.00,,---,0.00,VWS V13.01,2013-01-05 11:30:00,
2013-01-05 06:35:00,26.6,21.3,30.20,WNW,302,0.0,0.0,80,0.00,,---,0.00,VWS V13.01,2013-01-05 11:35:00,
2013-01-05 06:40:00,26.6,21.3,30.20,WNW,302,0.0,0.0,80,0.00,,---,0.00,VWS V13.01,2013-01-05 11:40:00,
2013-01-05 06:45:00,26.6,21.3,30.21,West,262,0.0,0.0,80,0.00,,---,0.00,VWS V13.01,2013-01-05 11:45:00,
2013-01-05 06:50:00,26.8,21.5,30.21,West,262,0.0,0.0,80,0.00,,---,0.00,VWS V13.01,2013-01-05 11:50:00,
2013-01-05 06:55:00,27.2,21.6,30.21,West,262,2.0,3.0,79,0.00,,---,0.00,VWS V13.01,2013-01-05 11:55:00,
2013-01-05 07:00:00,27.4,21.8,30.22,West,262,0.0,1.0,79,0.00,,---,0.00,VWS V13.01,2013-01-05 12:00:00,
2013-01-05 07:05:00,27.6,21.6,30.22,West,262,2.0,2.0,78,0.00,,---,0.00,VWS V13.01,2013-01-05 12:05:00,
2013-01-05 07:10:00,27.9,21.9,30.22,West,262,0.0,0.0,78,0.00,,---,0.00,VWS V13.01,2013-01-05 12:10:00,
2013-01-05 07:15:00,28.0,21.7,30.23,West,262,0.0,2.0,77,0.00,,---,0.00,VWS V13.01,2013-01-05 12:15:00,
2013-01-05 07:20:00,28.0,22.0,30.23,West,262,0.0,2.0,78,0.00,,---,0.00,VWS V13.01,2013-01-05 12:20:00,
2013-01-05 07:25:00,28.1,22.1,30.23,West,262,0.0,1.0,78,0.00,,---,0.00,VWS V13.01,2013-01-05 12:25:00,
2013-01-05 07:30:00,28.0,21.7,30.23,West,262,1.0,3.0,77,0.00,,---,0.00,VWS V13.01,2013-01-05 12:30:00,
2013-01-05 07:35:00,28.1,21.8,30.24,West,262,1.0,2.0,77,0.00,,---,0.00,VWS V13.01,2013-01-05 12:35:00,
2013-01-05 07:40:00,28.1,21.8,30.24,West,262,0.0,2.0,77,0.00,,---,0.00,VWS V13.01,2013-01-05 12:40:00,
2013-01-05 07:45:00,28.2,21.9,30.23,West,262,4.0,4.0,77,0.00,,---,0.00,VWS V13.01,2013-01-05 12:45:00,
2013-01-05 07:50:00,28.3,22.0,30.24,West,262,0.0,0.0,77,0.00,,---,0.00,VWS V13.01,2013-01-05 12:50:00,
2013-01-05 07:55:00,28.5,22.2,30.24,West,262,3.0,3.0,77,0.00,,---,0.00,VWS V13.01,2013-01-05 12:55:00,
2013-01-05 08:00:00,28.7,22.1,30.24,West,262,1.0,2.0,76,0.00,,---,0.00,VWS V13.01,2013-01-05 13:00:00,
2013-01-05 08:05:00,28.8,22.2,30.24,West,262,0.0,3.0,76,0.00,,---,0.00,VWS V13.01,2013-01-05 13:05:00,
2013-01-05 08:10:00,29.0,22.4,30.25,West,262,0.0,3.0,76,0.00,,---,0.00,VWS V13.01,2013-01-05 13:10:00,
2013-01-05 08:15:00,29.3,22.7,30.25,West,262,2.0,2.0,76,0.00,,---,0.00,VWS V13.01,2013-01-05 13:15:00,
2013-01-05 08:20:00,29.6,22.7,30.26,WSW,249,1.0,4.0,75,0.00,,---,0.00,VWS V13.01,2013-01-05 13:20:00,
2013-01-05 08:25:00,29.9,23.0,30.26,NNW,335,4.0,4.0,75,0.00,,---,0.00,VWS V13.01,2013-01-05 13:25:00,
2013-01-05 08:30:00,30.2,22.9,30.26,WNW,288,0.0,0.0,74,0.00,,---,0.00,VWS V13.01,2013-01-05 13:30:00,
2013-01-05 08:35:00,30.6,23.3,30.26,WNW,298,0.0,3.0,74,0.00,,---,0.00,VWS V13.01,2013-01-05 13:35:00,
2013-01-05 08:40:00,31.0,23.4,30.26,West,278,0.0,3.0,73,0.00,,---,0.00,VWS V13.01,2013-01-05 13:40:00,
2013-01-05 08:45:00,31.5,23.5,30.26,WNW,286,0.0,4.0,72,0.00,,---,0.00,VWS V13.01,2013-01-05 13:45:00,
2013-01-05 08:50:00,32.0,23.7,30.26,West,274,4.0,5.0,71,0.00,,---,0.00,VWS V13.01,2013-01-05 13:50:00,
2013-01-05 08:55:00,32.6,23.9,30.26,West,267,4.0,7.0,70,0.00,,---,0.00,VWS V13.01,2013-01-05 13:55:00,
2013-01-05 09:00:00,33.2,24.1,30.26,West,267,1.0,4.0,69,0.00,,---,0.00,VWS V13.01,2013-01-05 14:00:00,
2013-01-05 09:05:00,33.7,24.3,30.26,West,259,0.0,1.0,68,0.00,,---,0.00,VWS V13.01,2013-01-05 14:05:00,
2013-01-05 09:10:00,34.2,24.4,30.26,West,261,3.0,10.0,67,0.00,,---,0.00,VWS V13.01,2013-01-05 14:10:00,
2013-01-05 09:15:00,34.6,24.4,30.27,NNW,327,0.0,4.0,66,0.00,,---,0.00,VWS V13.01,2013-01-05 14:15:00,
2013-01-05 09:20:00,34.8,24.2,30.26,WSW,244,4.0,5.0,65,0.00,,---,0.00,VWS V13.01,2013-01-05 14:20:00,
2013-01-05 09:25:00,35.1,24.5,30.26,WNW,287,0.0,4.0,65,0.00,,---,0.00,VWS V13.01,2013-01-05 14:25:00,
2013-01-05 09:30:00,35.2,24.3,30.27,SW,216,5.0,7.0,64,0.00,,---,0.00,VWS V13.01,2013-01-05 14:30:00,
2013-01-05 09:35:00,35.5,24.9,30.27,WNW,292,0.0,0.0,65,0.00,,---,0.00,VWS V13.01,2013-01-05 14:35:00,
2013-01-05 09:40:00,35.8,24.8,30.27,WNW,286,9.0,11.0,64,0.00,,---,0.00,VWS V13.01,2013-01-05 14:40:00,
2013-01-05 09:45:00,36.0,25.0,30.27,WNW,301,6.0,6.0,64,0.00,,---,0.00,VWS V13.01,2013-01-05 14:45:00,
2013-01-05 09:50:00,36.2,24.8,30.27,NW,307,0.0,5.0,63,0.00,,---,0.00,VWS V13.01,2013-01-05 14:50:00,
2013-01-05 09:55:00,36.6,25.2,30.27,WNW,303,4.0,9.0,63,0.00,,---,0.00,VWS V13.01,2013-01-05 14:55:00,
2013-01-05 10:00:00,36.8,25.0,30.27,NW,313,3.0,6.0,62,0.00,,---,0.00,VWS V13.01,2013-01-05 15:00:00,
2013-01-05 10:05:00,36.9,25.1,30.28,WNW,302,3.0,9.0,62,0.00,,---,0.00,VWS V13.01,2013-01-05 15:05:00,
2013-01-05 10:10:00,37.2,25.8,30.28,West,277,9.0,11.0,63,0.00,,---,0.00,VWS V13.01,2013-01-05 15:10:00,
2013-01-05 10:15:00,37.5,25.3,30.28,WNW,290,3.0,7.0,61,0.00,,---,0.00,VWS V13.01,2013-01-05 15:15:00,
2013-01-05 10:20:00,37.9,25.7,30.28,NW,309,8.0,14.0,61,0.00,,---,0.00,VWS V13.01,2013-01-05 15:20:00,
2013-01-05 10:25:00,38.2,25.5,30.29,WNW,292,0.0,0.0,60,0.00,,---,0.00,VWS V13.01,2013-01-05 15:25:00,
2013-01-05 10:30:00,38.6,25.9,30.29,NW,305,2.0,3.0,60,0.00,,---,0.00,VWS V13.01,2013-01-05 15:30:00,
2013-01-05 10:35:00,38.8,25.7,30.29,NNW,337,5.0,8.0,59,0.00,,---,0.00,VWS V13.01,2013-01-05 15:35:00,
2013-01-05 10:40:00,39.1,26.0,30.29,NW,322,5.0,7.0,59,0.00,,---,0.00,VWS V13.01,2013-01-05 15:40:00,
2013-01-05 10:45:00,39.3,25.8,30.29,WNW,298,4.0,11.0,58,0.00,,---,0.00,VWS V13.01,2013-01-05 15:45:00,
2013-01-05 10:50:00,39.3,25.8,30.30,NNW,340,4.0,6.0,58,0.00,,---,0.00,VWS V13.01,2013-01-05 15:50:00,
2013-01-05 10:55:00,39.3,25.8,30.30,West,259,13.0,16.0,58,0.00,,---,0.00,VWS V13.01,2013-01-05 15:55:00,
2013-01-05 11:00:00,39.3,25.8,30.29,WNW,299,3.0,5.0,58,0.00,,---,0.00,VWS V13.01,2013-01-05 16:00:00,
2013-01-05 11:05:00,39.5,26.0,30.30,NW,311,4.0,9.0,58,0.00,,---,0.00,VWS V13.01,2013-01-05 16:05:00,
2013-01-05 11:10:00,39.9,25.9,30.30,NW,306,3.0,9.0,57,0.00,,---,0.00,VWS V13.01,2013-01-05 16:10:00,
2013-01-05 11:15:00,40.0,26.0,30.29,WNW,292,5.0,9.0,57,0.00,,---,0.00,VWS V13.01,2013-01-05 16:15:00,
2013-01-05 11:20:00,40.1,26.1,30.29,SW,223,3.0,7.0,57,0.00,,---,0.00,VWS V13.01,2013-01-05 16:20:00,
2013-01-05 11:25:00,40.4,26.4,30.28,West,274,8.0,13.0,57,0.00,,---,0.00,VWS V13.01,2013-01-05 16:25:00,
2013-01-05 11:30:00,40.6,26.1,30.27,NNW,341,7.0,7.0,56,0.00,,---,0.00,VWS V13.01,2013-01-05 16:30:00,
2013-01-05 11:35:00,40.8,26.3,30.27,WNW,302,11.0,14.0,56,0.00,,---,0.00,VWS V13.01,2013-01-05 16:35:00,
2013-01-05 11:40:00,40.7,26.2,30.26,WNW,298,5.0,6.0,56,0.00,,---,0.00,VWS V13.01,2013-01-05 16:40:00,
2013-01-05 11:45:00,40.6,26.1,30.27,NNW,327,3.0,4.0,56,0.00,,---,0.00,VWS V13.01,2013-01-05 16:45:00,
2013-01-05 11:50:00,40.6,26.1,30.27,NW,319,7.0,15.0,56,0.00,,---,0.00,VWS V13.01,2013-01-05 16:50:00,
2013-01-05 11:55:00,40.6,26.1,30.26,NNE,15,2.0,4.0,56,0.00,,---,0.00,VWS V13.01,2013-01-05 16:55:00,
2013-01-05 12:00:00,40.8,26.3,30.26,NW,319,5.0,9.0,56,0.00,,---,0.00,VWS V13.01,2013-01-05 17:00:00,
2013-01-05 12:05:00,40.9,26.4,30.25,NW,304,3.0,4.0,56,0.00,,---,0.00,VWS V13.01,2013-01-05 17:05:00,
2013-01-05 12:10:00,41.1,26.6,30.25,WNW,303,3.0,4.0,56,0.00,,---,0.00,VWS V13.01,2013-01-05 17:10:00,
2013-01-05 12:15:00,41.2,26.3,30.26,WNW,302,7.0,11.0,55,0.00,,---,0.00,VWS V13.01,2013-01-05 17:15:00,
2013-01-05 12:20:00,41.2,26.7,30.25,NW,311,3.0,11.0,56,0.00,,---,0.00,VWS V13.01,2013-01-05 17:20:00,
2013-01-05 12:25:00,41.3,26.4,30.25,NW,318,13.0,14.0,55,0.00,,---,0.00,VWS V13.01,2013-01-05 17:25:00,
2013-01-05 12:30:00,41.4,26.5,30.26,NW,307,1.0,2.0,55,0.00,,---,0.00,VWS V13.01,2013-01-05 17:30:00,
2013-01-05 12:35:00,41.6,26.6,30.25,West,261,6.0,14.0,55,0.00,,---,0.00,VWS V13.01,2013-01-05 17:35:00,
2013-01-05 12:40:00,41.6,26.6,30.25,West,273,4.0,7.0,55,0.00,,---,0.00,VWS V13.01,2013-01-05 17:40:00,
2013-01-05 12:45:00,41.8,26.8,30.25,NW,322,1.0,6.0,55,0.00,,---,0.00,VWS V13.01,2013-01-05 17:45:00,
2013-01-05 12:50:00,42.0,26.6,30.25,WNW,302,1.0,3.0,54,0.00,,---,0.00,VWS V13.01,2013-01-05 17:50:00,
2013-01-05 12:55:00,42.1,26.7,30.25,West,277,3.0,6.0,54,0.00,,---,0.00,VWS V13.01,2013-01-05 17:55:00,
2013-01-05 13:00:00,42.3,26.4,30.25,NNW,329,0.0,5.0,53,0.00,,---,0.00,VWS V13.01,2013-01-05 18:00:00,
2013-01-05 13:05:00,42.4,26.5,30.24,WNW,293,0.0,1.0,53,0.00,,---,0.00,VWS V13.01,2013-01-05 18:05:00,
2013-01-05 13:10:00,42.4,27.0,30.24,WNW,300,4.0,4.0,54,0.00,,---,0.00,VWS V13.01,2013-01-05 18:10:00,
2013-01-05 13:15:00,42.5,26.6,30.24,WNW,290,7.0,7.0,53,0.00,,---,0.00,VWS V13.01,2013-01-05 18:15:00,
2013-01-05 13:20:00,42.5,26.6,30.24,North,355,5.0,5.0,53,0.00,,---,0.00,VWS V13.01,2013-01-05 18:20:00,
2013-01-05 13:25:00,42.5,26.6,30.23,NNW,331,4.0,10.0,53,0.00,,---,0.00,VWS V13.01,2013-01-05 18:25:00,
2013-01-05 13:30:00,42.7,26.8,30.23,WNW,303,7.0,7.0,53,0.00,,---,0.00,VWS V13.01,2013-01-05 18:30:00,
2013-01-05 13:35:00,43.0,27.0,30.23,NW,309,3.0,6.0,53,0.00,,---,0.00,VWS V13.01,2013-01-05 18:35:00,
2013-01-05 13:40:00,43.3,26.4,30.22,NNW,338,6.0,6.0,51,0.00,,---,0.00,VWS V13.01,2013-01-05 18:40:00,
2013-01-05 13:45:00,43.1,26.7,30.22,NNE,19,9.0,11.0,52,0.00,,---,0.00,VWS V13.01,2013-01-05 18:45:00,
2013-01-05 13:50:00,42.9,26.5,30.22,NNW,327,2.0,3.0,52,0.00,,---,0.00,VWS V13.01,2013-01-05 18:50:00,
2013-01-05 13:55:00,42.8,26.4,30.22,NNW,333,2.0,4.0,52,0.00,,---,0.00,VWS V13.01,2013-01-05 18:55:00,
2013-01-05 14:00:00,42.6,26.2,30.22,WNW,298,4.0,6.0,52,0.00,,---,0.00,VWS V13.01,2013-01-05 19:00:00,
2013-01-05 14:05:00,42.4,26.5,30.22,NW,313,1.0,6.0,53,0.00,,---,0.00,VWS V13.01,2013-01-05 19:05:00,
2013-01-05 14:10:00,42.4,26.5,30.22,North,5,8.0,8.0,53,0.00,,---,0.00,VWS V13.01,2013-01-05 19:10:00,
2013-01-05 14:15:00,42.5,26.1,30.22,NW,304,2.0,3.0,52,0.00,,---,0.00,VWS V13.01,2013-01-05 19:15:00,
2013-01-05 14:20:00,42.5,26.6,30.22,NW,321,4.0,5.0,53,0.00,,---,0.00,VWS V13.01,2013-01-05 19:20:00,
2013-01-05 14:25:00,42.5,26.1,30.22,North,11,4.0,6.0,52,0.00,,---,0.00,VWS V13.01,2013-01-05 19:25:00,
2013-01-05 14:30:00,42.4,26.0,30.22,NW,319,2.0,4.0,52,0.00,,---,0.00,VWS V13.01,2013-01-05 19:30:00,
2013-01-05 14:35:00,42.5,26.6,30.23,West,281,5.0,7.0,53,0.00,,---,0.00,VWS V13.01,2013-01-05 19:35:00,
2013-01-05 14:40:00,42.6,26.7,30.23,WNW,299,0.0,0.0,53,0.00,,---,0.00,VWS V13.01,2013-01-05 19:40:00,
2013-01-05 14:45:00,42.8,26.9,30.23,NW,323,3.0,3.0,53,0.00,,---,0.00,VWS V13.01,2013-01-05 19:45:00,
2013-01-05 14:50:00,42.8,26.4,30.24,NNW,348,0.0,0.0,52,0.00,,---,0.00,VWS V13.01,2013-01-05 19:50:00,
2013-01-05 14:55:00,42.7,26.3,30.24,West,281,2.0,3.0,52,0.00,,---,0.00,VWS V13.01,2013-01-05 19:55:00,
2013-01-05 15:00:00,42.7,26.8,30.24,NW,318,5.0,6.0,53,0.00,,---,0.00,VWS V13.01,2013-01-05 20:00:00,
2013-01-05 15:05:00,42.8,26.4,30.24,WNW,292,1.0,1.0,52,0.00,,---,0.00,VWS V13.01,2013-01-05 20:05:00,
2013-01-05 15:10:00,42.8,26.4,30.23,WNW,296,3.0,3.0,52,0.00,,---,0.00,VWS V13.01,2013-01-05 20:10:00,
2013-01-05 15:15:00,42.9,26.5,30.24,WSW,242,2.0,2.0,52,0.00,,---,0.00,VWS V13.01,2013-01-05 20:15:00,
2013-01-05 15:20:00,42.8,26.4,30.23,NNW,348,5.0,5.0,52,0.00,,---,0.00,VWS V13.01,2013-01-05 20:20:00,
2013-01-05 15:25:00,42.7,26.8,30.24,West,274,2.0,5.0,53,0.00,,---,0.00,VWS V13.01,2013-01-05 20:25:00,
2013-01-05 15:30:00,42.6,26.7,30.24,WNW,285,2.0,2.0,53,0.00,,---,0.00,VWS V13.01,2013-01-05 20:30:00,
2013-01-05 15:35:00,42.4,26.5,30.24,West,271,0.0,1.0,53,0.00,,---,0.00,VWS V13.01,2013-01-05 20:35:00,
2013-01-05 15:40:00,42.2,26.3,30.24,WSW,258,3.0,5.0,53,0.00,,---,0.00,VWS V13.01,2013-01-05 20:40:00,
2013-01-05 15:45:00,42.1,26.2,30.25,WNW,294,4.0,4.0,53,0.00,,---,0.00,VWS V13.01,2013-01-05 20:45:00,
2013-01-05 15:50:00,42.0,26.6,30.24,WNW,296,0.0,0.0,54,0.00,,---,0.00,VWS V13.01,2013-01-05 20:50:00,
2013-01-05 15:55:00,41.8,26.4,30.25,WNW,292,0.0,0.0,54,0.00,,---,0.00,VWS V13.01,2013-01-05 20:55:00,
2013-01-05 16:00:00,41.6,26.2,30.24,WNW,292,0.0,0.0,54,0.00,,---,0.00,VWS V13.01,2013-01-05 21:00:00,
2013-01-05 16:05:00,41.4,26.5,30.24,West,278,0.0,0.0,55,0.00,,---,0.00,VWS V13.01,2013-01-05 21:05:00,
2013-01-05 16:10:00,41.1,26.2,30.24,West,278,0.0,0.0,55,0.00,,---,0.00,VWS V13.01,2013-01-05 21:10:00,
2013-01-05 16:15:00,40.9,26.4,30.24,West,278,0.0,0.0,56,0.00,,---,0.00,VWS V13.01,2013-01-05 21:15:00,
2013-01-05 16:20:00,40.6,26.1,30.24,West,278,0.0,0.0,56,0.00,,---,0.00,VWS V13.01,2013-01-05 21:20:00,
2013-01-05 16:25:00,40.4,26.4,30.24,West,278,2.0,2.0,57,0.00,,---,0.00,VWS V13.01,2013-01-05 21:25:00,
2013-01-05 16:30:00,40.2,26.2,30.24,West,278,0.0,0.0,57,0.00,,---,0.00,VWS V13.01,2013-01-05 21:30:00,
2013-01-05 16:35:00,40.0,26.4,30.24,West,278,0.0,0.0,58,0.00,,---,0.00,VWS V13.01,2013-01-05 21:35:00,
2013-01-05 16:40:00,39.8,26.2,30.24,West,278,0.0,0.0,58,0.00,,---,0.00,VWS V13.01,2013-01-05 21:40:00,
2013-01-05 16:45:00,39.5,26.0,30.24,West,278,0.0,0.0,58,0.00,,---,0.00,VWS V13.01,2013-01-05 21:45:00,
2013-01-05 16:50:00,39.2,26.1,30.24,West,278,0.0,0.0,59,0.00,,---,0.00,VWS V13.01,2013-01-05 21:50:00,
2013-01-05 16:55:00,38.8,26.1,30.24,West,278,0.0,0.0,60,0.00,,---,0.00,VWS V13.01,2013-01-05 21:55:00,
2013-01-05 17:00:00,38.5,26.2,30.25,West,278,0.0,0.0,61,0.00,,---,0.00,VWS V13.01,2013-01-05 22:00:00,
2013-01-05 17:05:00,38.1,25.9,30.25,West,278,0.0,0.0,61,0.00,,---,0.00,VWS V13.01,2013-01-05 22:05:00,
2013-01-05 17:10:00,37.8,26.0,30.25,West,278,0.0,0.0,62,0.00,,---,0.00,VWS V13.01,2013-01-05 22:10:00,
2013-01-05 17:15:00,37.5,26.1,30.25,West,278,0.0,0.0,63,0.00,,---,0.00,VWS V13.01,2013-01-05 22:15:00,
2013-01-05 17:20:00,37.1,25.7,30.25,West,278,0.0,0.0,63,0.00,,---,0.00,VWS V13.01,2013-01-05 22:20:00,
2013-01-05 17:25:00,36.8,25.8,30.25,West,278,0.0,0.0,64,0.00,,---,0.00,VWS V13.01,2013-01-05 22:25:00,
2013-01-05 17:30:00,36.5,25.9,30.25,West,278,0.0,0.0,65,0.00,,---,0.00,VWS V13.01,2013-01-05 22:30:00,
2013-01-05 17:35:00,36.2,25.6,30.26,West,278,0.0,0.0,65,0.00,,---,0.00,VWS V13.01,2013-01-05 22:35:00,
2013-01-05 17:40:00,35.9,25.7,30.26,West,278,0.0,0.0,66,0.00,,---,0.00,VWS V13.01,2013-01-05 22:40:00,
2013-01-05 17:45:00,35.6,25.7,30.26,West,278,0.0,0.0,67,0.00,,---,0.00,VWS V13.01,2013-01-05 22:45:00,
2013-01-05 17:50:00,35.4,25.5,30.26,West,278,0.0,0.0,67,0.00,,---,0.00,VWS V13.01,2013-01-05 22:50:00,
2013-01-05 17:55:00,35.3,25.5,30.26,West,278,0.0,0.0,67,0.00,,---,0.00,VWS V13.01,2013-01-05 22:55:00,
2013-01-05 18:00:00,35.1,25.6,30.25,West,278,0.0,0.0,68,0.00,,---,0.00,VWS V13.01,2013-01-05 23:00:00,
2013-01-05 18:05:00,35.0,25.5,30.26,West,278,0.0,0.0,68,0.00,,---,0.00,VWS V13.01,2013-01-05 23:05:00,
2013-01-05 18:10:00,34.8,25.3,30.26,West,278,0.0,0.0,68,0.00,,---,0.00,VWS V13.01,2013-01-05 23:10:00,
2013-01-05 18:15:00,34.7,25.6,30.26,West,278,1.0,2.0,69,0.00,,---,0.00,VWS V13.01,2013-01-05 23:15:00,
2013-01-05 18:20:00,34.5,25.4,30.25,West,278,0.0,0.0,69,0.00,,---,0.00,VWS V13.01,2013-01-05 23:20:00,
2013-01-05 18:25:00,34.4,25.3,30.26,West,278,0.0,0.0,69,0.00,,---,0.00,VWS V13.01,2013-01-05 23:25:00,
2013-01-05 18:30:00,34.3,25.5,30.26,West,278,0.0,0.0,70,0.00,,---,0.00,VWS V13.01,2013-01-05 23:30:00,
2013-01-05 18:35:00,34.1,25.0,30.26,West,278,0.0,0.0,69,0.00,,---,0.00,VWS V13.01,2013-01-05 23:35:00,
2013-01-05 18:40:00,33.8,25.1,30.26,West,278,0.0,0.0,70,0.00,,---,0.00,VWS V13.01,2013-01-05 23:40:00,
2013-01-05 18:45:00,33.6,25.2,30.25,West,278,0.0,0.0,71,0.00,,---,0.00,VWS V13.01,2013-01-05 23:45:00,
2013-01-05 18:50:00,33.4,25.4,30.26,West,278,0.0,0.0,72,0.00,,---,0.00,VWS V13.01,2013-01-05 23:50:00,
2013-01-05 18:55:00,33.2,25.2,30.26,West,278,0.0,0.0,72,0.00,,---,0.00,VWS V13.01,2013-01-05 23:55:00,
2013-01-05 19:00:00,33.0,25.0,30.26,West,278,0.0,0.0,72,0.00,,---,0.00,VWS V13.01,2013-01-06 00:00:00,
2013-01-05 19:05:00,32.8,24.8,30.27,West,278,0.0,0.0,72,0.00,,---,0.00,VWS V13.01,2013-01-06 00:05:00,
2013-01-05 19:10:00,32.7,25.0,30.27,West,278,0.0,0.0,73,0.00,,---,0.00,VWS V13.01,2013-01-06 00:10:00,
2013-01-05 19:15:00,32.6,24.9,30.27,West,278,0.0,0.0,73,0.00,,---,0.00,VWS V13.01,2013-01-06 00:15:00,
2013-01-05 19:20:00,32.5,24.8,30.27,West,278,0.0,0.0,73,0.00,,---,0.00,VWS V13.01,2013-01-06 00:20:00,
2013-01-05 19:25:00,32.4,24.7,30.27,West,278,0.0,1.0,73,0.00,,---,0.00,VWS V13.01,2013-01-06 00:25:00,
2013-01-05 19:30:00,32.3,24.6,30.27,West,278,0.0,0.0,73,0.00,,---,0.00,VWS V13.01,2013-01-06 00:30:00,
2013-01-05 19:35:00,32.3,24.6,30.26,West,278,0.0,0.0,73,0.00,,---,0.00,VWS V13.01,2013-01-06 00:35:00,
2013-01-05 19:40:00,32.4,24.7,30.26,West,278,1.0,1.0,73,0.00,,---,0.00,VWS V13.01,2013-01-06 00:40:00,
2013-01-05 19:45:00,32.5,24.8,30.26,West,278,0.0,0.0,73,0.00,,---,0.00,VWS V13.01,2013-01-06 00:45:00,
2013-01-05 19:50:00,32.6,24.9,30.25,West,278,0.0,0.0,73,0.00,,---,0.00,VWS V13.01,2013-01-06 00:50:00,
2013-01-05 19:55:00,32.7,25.0,30.25,West,278,0.0,0.0,73,0.00,,---,0.00,VWS V13.01,2013-01-06 00:55:00,
2013-01-05 20:00:00,32.7,24.7,30.25,West,278,0.0,0.0,72,0.00,,---,0.00,VWS V13.01,2013-01-06 01:00:00,
2013-01-05 20:05:00,32.7,24.7,30.24,West,278,0.0,0.0,72,0.00,,---,0.00,VWS V13.01,2013-01-06 01:05:00,
2013-01-05 20:10:00,32.7,24.7,30.24,West,278,0.0,0.0,72,0.00,,---,0.00,VWS V13.01,2013-01-06 01:10:00,
2013-01-05 20:15:00,32.6,24.6,30.24,West,278,0.0,0.0,72,0.00,,---,0.00,VWS V13.01,2013-01-06 01:15:00,
2013-01-05 20:20:00,32.5,24.5,30.23,West,278,0.0,0.0,72,0.00,,---,0.00,VWS V13.01,2013-01-06 01:20:00,
2013-01-05 20:25:00,32.5,24.5,30.23,West,278,0.0,0.0,72,0.00,,---,0.00,VWS V13.01,2013-01-06 01:25:00,
2013-01-05 20:30:00,32.5,24.5,30.23,West,278,0.0,0.0,72,0.00,,---,0.00,VWS V13.01,2013-01-06 01:30:00,
2013-01-05 20:35:00,32.4,24.4,30.23,West,278,1.0,2.0,72,0.00,,---,0.00,VWS V13.01,2013-01-06 01:35:00,
2013-01-05 20:39:00,32.4,24.7,30.23,West,278,2.0,3.0,73,0.00,,---,0.00,VWS V13.01,2013-01-06 01:39:00,
2013-01-05 20:44:00,32.4,24.7,30.24,West,278,3.0,3.0,73,0.00,,---,0.00,VWS V13.01,2013-01-06 01:44:00,
2013-01-05 20:49:00,32.4,24.7,30.24,West,278,0.0,0.0,73,0.00,,---,0.00,VWS V13.01,2013-01-06 01:49:00,
2013-01-05 20:54:00,32.5,24.8,30.24,West,278,0.0,1.0,73,0.00,,---,0.00,VWS V13.01,2013-01-06 01:54:00,
2013-01-05 20:59:00,32.6,24.9,30.25,West,278,4.0,4.0,73,0.00,,---,0.00,VWS V13.01,2013-01-06 01:59:00,
2013-01-05 21:04:00,32.6,24.9,30.25,West,278,0.0,0.0,73,0.00,,---,0.00,VWS V13.01,2013-01-06 02:04:00,
2013-01-05 21:09:00,32.7,24.7,30.25,West,278,0.0,2.0,72,0.00,,---,0.00,VWS V13.01,2013-01-06 02:09:00,
2013-01-05 21:14:00,32.6,24.9,30.26,West,278,0.0,1.0,73,0.00,,---,0.00,VWS V13.01,2013-01-06 02:14:00,
2013-01-05 21:19:00,32.6,24.9,30.26,West,278,0.0,0.0,73,0.00,,---,0.00,VWS V13.01,2013-01-06 02:19:00,
2013-01-05 21:24:00,32.5,24.8,30.26,West,278,3.0,4.0,73,0.00,,---,0.00,VWS V13.01,2013-01-06 02:24:00,
2013-01-05 21:29:00,32.5,24.8,30.26,West,278,0.0,0.0,73,0.00,,---,0.00,VWS V13.01,2013-01-06 02:29:00,
2013-01-05 21:34:00,32.4,24.7,30.25,West,278,0.0,0.0,73,0.00,,---,0.00,VWS V13.01,2013-01-06 02:34:00,
2013-01-05 21:39:00,32.4,24.7,30.24,West,278,0.0,0.0,73,0.00,,---,0.00,VWS V13.01,2013-01-06 02:39:00,
2013-01-05 21:44:00,32.3,24.6,30.24,West,278,0.0,0.0,73,0.00,,---,0.00,VWS V13.01,2013-01-06 02:44:00,
2013-01-05 21:49:00,32.2,24.5,30.23,West,278,0.0,0.0,73,0.00,,---,0.00,VWS V13.01,2013-01-06 02:49:00,
2013-01-05 21:54:00,32.1,24.4,30.23,West,278,0.0,0.0,73,0.00,,---,0.00,VWS V13.01,2013-01-06 02:54:00,
2013-01-05 21:59:00,32.0,24.7,30.22,West,278,0.0,0.0,74,0.00,,---,0.00,VWS V13.01,2013-01-06 02:59:00,
2013-01-05 22:04:00,32.0,24.7,30.21,West,278,0.0,0.0,74,0.00,,---,0.00,VWS V13.01,2013-01-06 03:04:00,
2013-01-05 22:09:00,31.9,24.9,30.21,West,278,0.0,0.0,75,0.00,,---,0.00,VWS V13.01,2013-01-06 03:09:00,
2013-01-05 22:14:00,31.9,24.9,30.21,West,278,0.0,0.0,75,0.00,,---,0.00,VWS V13.01,2013-01-06 03:14:00,
2013-01-05 22:19:00,31.9,25.2,30.21,West,278,0.0,0.0,76,0.00,,---,0.00,VWS V13.01,2013-01-06 03:19:00,
2013-01-05 22:24:00,31.9,25.2,30.22,West,278,0.0,0.0,76,0.00,,---,0.00,VWS V13.01,2013-01-06 03:24:00,
2013-01-05 22:29:00,32.0,25.3,30.23,West,278,1.0,2.0,76,0.00,,---,0.00,VWS V13.01,2013-01-06 03:29:00,
2013-01-05 22:34:00,32.1,25.4,30.23,West,278,0.0,0.0,76,0.00,,---,0.00,VWS V13.01,2013-01-06 03:34:00,
2013-01-05 22:39:00,32.1,25.4,30.23,West,278,0.0,0.0,76,0.00,,---,0.00,VWS V13.01,2013-01-06 03:39:00,
2013-01-05 22:44:00,32.2,25.2,30.23,West,278,0.0,0.0,75,0.00,,---,0.00,VWS V13.01,2013-01-06 03:44:00,
2013-01-05 22:49:00,32.3,25.3,30.23,West,278,0.0,0.0,75,0.00,,---,0.00,VWS V13.01,2013-01-06 03:49:00,
2013-01-05 22:54:00,32.3,25.3,30.22,West,278,0.0,0.0,75,0.00,,---,0.00,VWS V13.01,2013-01-06 03:54:00,
2013-01-05 22:59:00,32.3,25.3,30.22,West,278,0.0,0.0,75,0.00,,---,0.00,VWS V13.01,2013-01-06 03:59:00,
2013-01-05 23:04:00,32.4,25.4,30.22,West,278,0.0,0.0,75,0.00,,---,0.00,VWS V13.01,2013-01-06 04:04:00,
2013-01-05 23:09:00,32.4,25.4,30.22,West,278,0.0,0.0,75,0.00,,---,0.00,VWS V13.01,2013-01-06 04:09:00,
2013-01-05 23:14:00,32.4,25.4,30.21,West,278,0.0,0.0,75,0.00,,---,0.00,VWS V13.01,2013-01-06 04:14:00,
2013-01-05 23:19:00,32.4,25.4,30.21,West,278,0.0,0.0,75,0.00,,---,0.00,VWS V13.01,2013-01-06 04:19:00,
2013-01-05 23:24:00,32.4,25.4,30.20,West,278,0.0,0.0,75,0.00,,---,0.00,VWS V13.01,2013-01-06 04:24:00,
2013-01-05 23:29:00,32.4,25.4,30.19,West,278,0.0,0.0,75,0.00,,---,0.00,VWS V13.01,2013-01-06 04:29:00,
2013-01-05 23:34:00,32.3,25.6,30.20,West,278,0.0,0.0,76,0.00,,---,0.00,VWS V13.01,2013-01-06 04:34:00,
2013-01-05 23:39:00,32.4,25.4,30.20,West,278,0.0,0.0,75,0.00,,---,0.00,VWS V13.01,2013-01-06 04:39:00,
2013-01-05 23:44:00,32.4,25.7,30.20,West,278,0.0,0.0,76,0.00,,---,0.00,VWS V13.01,2013-01-06 04:44:00,
2013-01-05 23:50:00,32.5,25.8,30.21,West,278,0.0,0.0,76,0.00,,---,0.00,VWS V13.01,2013-01-06 04:50:00,
2013-01-05 23:55:00,32.6,25.6,30.20,West,278,0.0,0.0,75,0.00,,---,0.00,VWS V13.01,2013-01-06 04:55:00,